User: anonymous   Login
Location: M?digepalle
(16.1753°N, 80.3496°E)
Time: 12:22:41
(UTC+00:00)
Language:

CSL-04 Debris - Orbit

View from above orbital plane
View from above orbital plane
View from above satellite
View from above satellite

Ground track
Ground track

The orbit data is extracted from the following two-line orbital elements,

1 25733U 99025D   21019.10689136  .00000083  00000-0  64305-4 0  9995
2 25733  98.9279  54.2197 0015567  71.7512 288.5355 14.16423637120298
Epoch (UTC): 19 January 2021 02:33:55
Eccentricity: 0.0015567
inclination: 98.9279°
perigee height: 826 km
apogee height: 849 km
right ascension of ascending node: 54.2197°
argument of perigee: 71.7512°
revolutions per day: 14.16423637
mean anomaly at epoch: 288.5355°
orbit number at epoch: 12029

The dashed part of the orbit path shows where the satellite is in the earth's shadow,  

DLR